Terug naar catalogus

METEOR 2-5 DEB

ActiefPO
NORAD 38276·DEBRIS·🇷🇺 Russia

Gelanceerd Oct 31, 1979 vanaf Plesetsk Cosmodrome

Loading…

Volgende Passages (komende 24 uur)

TLE

VersSource: Space-Track

Epoch: Sep 13, 2026, 02:51 UTC

1 38276U 79095BW  26256.11914645  .00005192  00000-0  15657-2 0  9991
2 38276  81.1846  38.0197 0025769 127.5671 358.6388 14.42212265763974

Volg METEOR 2-5 DEB in realtime met AllMySat

Download on the App Store